QPF
0.00 0.00 0.00 0.00 0.00 0.00 0.00 0.00 0.00 0.00 0.00 0.01 0.01 0.02 0.02 0.01 0.02 0.03 0.03 0.03 0.05 0.04 0.04 0.05 0.05 0.05 0.04 0.04 0.04 0.03 0.02 0.02 0.01 0.01 0.00 0.00 0.00 0.00 0.00 0.00 0.00 0.00 0.00 0.00
0.00 0.00 0.00 0.00 0.00 0.00 0.00 0.00 0.00 0.00 0.00 0.01 0.01 0.01 0.01 0.01 0.02 0.02 0.03 0.03 0.03 0.03 0.04 0.05 0.05 0.05 0.05 0.05 0.04 0.03 0.02 0.02 0.02 0.02 0.01 0.00 0.00 0.00 0.00 0.00 0.00 0.00 0.00 0.00
0.01 0.00 0.00 0.01 0.00 0.00 0.00 0.00 0.00 0.00 0.00 0.01 0.01 0.01 0.01 0.01 0.01 0.01 0.02 0.02 0.02 0.02 0.03 0.03 0.04 0.04 0.04 0.04 0.04 0.03 0.02 0.03 0.03 0.02 0.01 0.00 0.00 0.00 0.00 0.00 0.00 0.00 0.00 0.01
0.02 0.01 0.01 0.00 0.00 0.00 0.00 0.00 0.01 0.01 0.00 0.01 0.01 0.01 0.01 0.00 0.00 0.01 0.01 0.02 0.02 0.02 0.01 0.02 0.03 0.04 0.04 0.04 0.04 0.03 0.03 0.03 0.02 0.01 0.01 0.00 0.00 0.00 0.00 0.00 0.00 0.00 0.00 0.00
0.04 0.02 0.01 0.00 0.00 0.00 0.00 0.00 0.01 0.01 0.01 0.01 0.00 0.00 0.01 0.01 0.00 0.00 0.01 0.01 0.02 0.02 0.01 0.01 0.02 0.03 0.03 0.05 0.04 0.03 0.02 0.02 0.01 0.01 0.00 0.00 0.00 0.00 0.00 0.00 0.00 0.00 0.00 0.00
0.04 0.03 0.02 0.00 0.00 0.01 0.00 0.00 0.01 0.01 0.01 0.01 0.00 0.00 0.01 0.01 0.01 0.00 0.00 0.00 0.01 0.00 0.01 0.02 0.03 0.02 0.02 0.04 0.03 0.02 0.01 0.01 0.01 0.01 0.01 0.01 0.00 0.00 0.00 0.01 0.01 0.01 0.01 0.01
0.04 0.04 0.02 0.00 0.00 0.01 0.01 0.00 0.01 0.01 0.01 0.01 0.01 0.01 0.01 0.01 0.01 0.00 0.00 0.00 0.00 0.00 0.00 0.01 0.02 0.02 0.02 0.02 0.01 0.01 0.01 0.02 0.02 0.02 0.01 0.02 0.01 0.01 0.01 0.01 0.01 0.02 0.02 0.02
0.03 0.03 0.02 0.00 0.00 0.00 0.01 0.01 0.01 0.01 0.01 0.01 0.01 0.01 0.01 0.01 0.01 0.01 0.01 0.00 0.00 0.00 0.00 0.01 0.01 0.01 0.02 0.02 0.02 0.02 0.02 0.03 0.03 0.02 0.01 0.02 0.03 0.03 0.02 0.02 0.02 0.02 0.02 0.02
0.03 0.02 0.01 0.00 0.00 0.00 0.01 0.01 0.01 0.00 0.01 0.01 0.01 0.01 0.00 0.00 0.00 0.00 0.01 0.00 0.00 0.00 0.01 0.01 0.02 0.02 0.02 0.02 0.04 0.05 0.04 0.03 0.03 0.03 0.02 0.02 0.03 0.04 0.03 0.02 0.01 0.01 0.01 0.01
0.02 0.01 0.01 0.00 0.01 0.01 0.01 0.01 0.01 0.00 0.00 0.01 0.00 0.00 0.00 0.00 0.00 0.00 0.00 0.01 0.01 0.01 0.01 0.01 0.01 0.02 0.02 0.02 0.04 0.05 0.05 0.04 0.03 0.03 0.03 0.03 0.03 0.03 0.03 0.02 0.02 0.02 0.02 0.02
0.01 0.01 0.01 0.01 0.01 0.01 0.01 0.01 0.00 0.00 0.00 0.00 0.00 0.00 0.00 0.00 0.00 0.00 0.00 0.00 0.01 0.01 0.01 0.01 0.01 0.01 0.02 0.02 0.02 0.03 0.03 0.04 0.03 0.03 0.03 0.03 0.03 0.03 0.04 0.03 0.03 0.03 0.03 0.03
0.01 0.01 0.01 0.01 0.01 0.01 0.01 0.01 0.01 0.00 0.00 0.00 0.00 0.00 0.00 0.00 0.00 0.00 0.00 0.00 0.01 0.01 0.01 0.01 0.01 0.01 0.01 0.01 0.02 0.02 0.02 0.02 0.03 0.03 0.03 0.04 0.03 0.03 0.04 0.05 0.05 0.04 0.03 0.02
0.01 0.01 0.01 0.01 0.01 0.01 0.01 0.01 0.01 0.00 0.00 0.01 0.01 0.01 0.01 0.00 0.00 0.00 0.01 0.01 0.01 0.01 0.01 0.01 0.01 0.01 0.01 0.01 0.01 0.02 0.01 0.02 0.02 0.02 0.03 0.04 0.04 0.05 0.04 0.04 0.04 0.02 0.01 0.01
0.01 0.01 0.01 0.01 0.02 0.01 0.01 0.01 0.01 0.01 0.01 0.01 0.00 0.01 0.00 0.00 0.00 0.00 0.01 0.01 0.01 0.01 0.01 0.01 0.01 0.01 0.02 0.02 0.02 0.02 0.02 0.02 0.03 0.03 0.04 0.05 0.06 0.05 0.04 0.03 0.03 0.02 0.01 0.01
0.01 0.01 0.01 0.01 0.02 0.02 0.01 0.01 0.01 0.00 0.00 0.01 0.01 0.00 0.00 0.00 0.01 0.01 0.00 0.00 0.01 0.00 0.01 0.00 0.00 0.01 0.02 0.02 0.02 0.03 0.03 0.03 0.04 0.04 0.04 0.04 0.04 0.04 0.03 0.03 0.03 0.02 0.02 0.01
0.00 0.01 0.01 0.02 0.02 0.02 0.02 0.01 0.01 0.00 0.00 0.01 0.01 0.01 0.01 0.01 0.01 0.01 0.01 0.01 0.01 0.01 0.01 0.01 0.01 0.01 0.02 0.04 0.04 0.03 0.04 0.05 0.04 0.04 0.04 0.04 0.04 0.03 0.03 0.02 0.02 0.02 0.02 0.01
0.01 0.01 0.01 0.02 0.02 0.02 0.01 0.01 0.01 0.01 0.00 0.00 0.00 0.00 0.01 0.01 0.01 0.02 0.02 0.02 0.02 0.02 0.02 0.02 0.01 0.01 0.01 0.02 0.04 0.04 0.04 0.05 0.05 0.05 0.04 0.03 0.04 0.04 0.03 0.02 0.02 0.01 0.01 0.01
0.01 0.01 0.01 0.02 0.03 0.02 0.01 0.01 0.01 0.01 0.00 0.00 0.00 0.01 0.01 0.01 0.01 0.02 0.02 0.02 0.02 0.02 0.02 0.02 0.02 0.02 0.01 0.01 0.01 0.02 0.03 0.04 0.04 0.05 0.04 0.04 0.04 0.04 0.03 0.02 0.02 0.02 0.02 0.02
0.01 0.01 0.01 0.01 0.03 0.02 0.01 0.01 0.01 0.01 0.01 0.01 0.01 0.01 0.01 0.01 0.01 0.01 0.01 0.02 0.02 0.02 0.02 0.02 0.02 0.02 0.01 0.01 0.01 0.01 0.01 0.02 0.03 0.04 0.04 0.05 0.04 0.03 0.03 0.02 0.03 0.03 0.03 0.03
0.01 0.01 0.01 0.01 0.02 0.02 0.02 0.01 0.01 0.01 0.01 0.01 0.01 0.01 0.01 0.02 0.01 0.01 0.01 0.01 0.01 0.01 0.01 0.01 0.01 0.01 0.01 0.01 0.01 0.01 0.01 0.01 0.02 0.03 0.03 0.03 0.02 0.02 0.02 0.03 0.03 0.03 0.03 0.03
0.01 0.01 0.01 0.01 0.02 0.02 0.02 0.01 0.01 0.01 0.01 0.01 0.01 0.01 0.01 0.01 0.01 0.01 0.01 0.01 0.00 0.00 0.00 0.01 0.01 0.01 0.01 0.01 0.01 0.01 0.00 0.01 0.01 0.02 0.02 0.02 0.02 0.02 0.03 0.02 0.02 0.02 0.02 0.02
0.01 0.01 0.01 0.01 0.01 0.01 0.01 0.01 0.01 0.01 0.01 0.01 0.02 0.01 0.02 0.01 0.01 0.01 0.01 0.01 0.01 0.00 0.00 0.00 0.01 0.01 0.02 0.01 0.01 0.01 0.01 0.01 0.01 0.01 0.01 0.01 0.01 0.01 0.01 0.02 0.02 0.02 0.02 0.03
0.01 0.02 0.02 0.02 0.01 0.01 0.01 0.01 0.02 0.02 0.02 0.01 0.01 0.02 0.02 0.01 0.01 0.01 0.01 0.01 0.01 0.00 0.00 0.01 0.01 0.02 0.02 0.01 0.01 0.01 0.01 0.01 0.01 0.01 0.01 0.01 0.01 0.01 0.01 0.01 0.01 0.02 0.02 0.02
0.02 0.03 0.02 0.02 0.02 0.01 0.02 0.02 0.02 0.02 0.02 0.01 0.02 0.02 0.02 0.01 0.01 0.00 0.01 0.01 0.01 0.01 0.01 0.01 0.01 0.02 0.02 0.01 0.02 0.02 0.01 0.01 0.01 0.01 0.01 0.01 0.01 0.01 0.01 0.01 0.02 0.02 0.02 0.02
0.03 0.04 0.04 0.03 0.02 0.02 0.02 0.02 0.02 0.02 0.02 0.02 0.02 0.02 0.02 0.01 0.01 0.01 0.01 0.01 0.01 0.01 0.01 0.01 0.01 0.02 0.02 0.02 0.02 0.02 0.02 0.01 0.01 0.01 0.01 0.01 0.01 0.01 0.01 0.01 0.01 0.02 0.02 0.02
0.02 0.04 0.05 0.04 0.03 0.02 0.02 0.02 0.02 0.02 0.03 0.03 0.02 0.02 0.02 0.02 0.01 0.01 0.01 0.01 0.01 0.01 0.01 0.01 0.01 0.02 0.02 0.02 0.02 0.02 0.02 0.02 0.02 0.02 0.01 0.01 0.01 0.01 0.01 0.01 0.01 0.02 0.02 0.02
0.02 0.03 0.04 0.04 0.03 0.02 0.02 0.02 0.02 0.02 0.03 0.03 0.03 0.02 0.02 0.02 0.02 0.02 0.02 0.01 0.01 0.01 0.02 0.02 0.02 0.02 0.02 0.02 0.02 0.02 0.02 0.02 0.02 0.02 0.01 0.01 0.01 0.01 0.01 0.01 0.01 0.01 0.01 0.01
MSLP
1020.49 1020.87 1021.30 1021.78 1022.30 1022.82 1023.27 1023.61 1023.77 1023.72 1023.42 1022.92 1022.23 1021.43 1020.61 1019.84 1019.18 1018.67 1018.32 1018.14 1018.09 1018.13 1018.23 1018.35 1018.48 1018.60 1018.72 1018.85 1019.01 1019.18 1019.37 1019.57 1019.75 1019.91 1020.02 1020.09 1020.11 1020.09 1020.07 1020.06 1020.08 1020.15 1020.27 1020.44
1020.71 1021.03 1021.35 1021.68 1022.03 1022.37 1022.67 1022.90 1023.01 1022.96 1022.75 1022.38 1021.86 1021.25 1020.59 1019.95 1019.37 1018.88 1018.51 1018.27 1018.13 1018.09 1018.11 1018.18 1018.29 1018.42 1018.58 1018.76 1018.96 1019.19 1019.42 1019.66 1019.88 1020.06 1020.20 1020.29 1020.34 1020.37 1020.37 1020.38 1020.41 1020.48 1020.58 1020.71
1021.00 1021.24 1021.44 1021.63 1021.82 1021.99 1022.15 1022.28 1022.33 1022.30 1022.16 1021.90 1021.53 1021.07 1020.55 1020.01 1019.49 1019.02 1018.62 1018.30 1018.08 1017.94 1017.88 1017.89 1017.97 1018.09 1018.26 1018.48 1018.73 1018.99 1019.27 1019.55 1019.81 1020.04 1020.23 1020.38 1020.49 1020.56 1020.62 1020.67 1020.72 1020.78 1020.86 1020.95
1021.32 1021.47 1021.57 1021.62 1021.66 1021.70 1021.73 1021.77 1021.77 1021.74 1021.65 1021.48 1021.22 1020.88 1020.47 1020.01 1019.53 1019.06 1018.62 1018.24 1017.92 1017.69 1017.55 1017.49 1017.52 1017.62 1017.79 1018.02 1018.29 1018.59 1018.91 1019.23 1019.54 1019.83 1020.09 1020.32 1020.51 1020.67 1020.79 1020.90 1020.98 1021.04 1021.10 1021.15
1021.59 1021.66 1021.65 1021.59 1021.50 1021.42 1021.36 1021.32 1021.28 1021.25 1021.18 1021.07 1020.89 1020.64 1020.30 1019.90 1019.45 1018.97 1018.50 1018.05 1017.67 1017.36 1017.14 1017.01 1016.99 1017.05 1017.20 1017.42 1017.70 1018.02 1018.36 1018.73 1019.09 1019.45 1019.80 1020.12 1020.41 1020.66 1020.87 1021.04 1021.16 1021.23 1021.27 1021.27
1021.72 1021.70 1021.60 1021.44 1021.27 1021.10 1020.96 1020.86 1020.79 1020.75 1020.70 1020.63 1020.51 1020.31 1020.03 1019.67 1019.24 1018.76 1018.26 1017.78 1017.34 1016.97 1016.69 1016.50 1016.43 1016.45 1016.57 1016.77 1017.03 1017.36 1017.72 1018.11 1018.53 1018.95 1019.38 1019.80 1020.19 1020.54 1020.84 1021.07 1021.23 1021.32 1021.34 1021.31
1021.61 1021.52 1021.35 1021.13 1020.88 1020.66 1020.47 1020.33 1020.25 1020.20 1020.17 1020.13 1020.04 1019.89 1019.65 1019.32 1018.92 1018.45 1017.95 1017.45 1016.98 1016.57 1016.25 1016.03 1015.91 1015.89 1015.97 1016.14 1016.38 1016.69 1017.05 1017.46 1017.91 1018.39 1018.89 1019.38 1019.86 1020.30 1020.68 1020.97 1021.18 1021.28 1021.30 1021.24
1021.24 1021.09 1020.87 1020.61 1020.33 1020.08 1019.87 1019.73 1019.64 1019.60 1019.58 1019.56 1019.51 1019.39 1019.19 1018.90 1018.53 1018.09 1017.61 1017.12 1016.65 1016.24 1015.90 1015.65 1015.49 1015.44 1015.48 1015.60 1015.81 1016.08 1016.43 1016.83 1017.29 1017.80 1018.34 1018.90 1019.45 1019.95 1020.39 1020.73 1020.97 1021.10 1021.12 1021.05
1020.62 1020.44 1020.19 1019.92 1019.65 1019.41 1019.21 1019.08 1019.01 1018.99 1019.00 1019.01 1018.98 1018.90 1018.73 1018.49 1018.15 1017.75 1017.31 1016.85 1016.40 1016.00 1015.66 1015.40 1015.23 1015.14 1015.13 1015.21 1015.36 1015.59 1015.90 1016.28 1016.72 1017.23 1017.79 1018.37 1018.95 1019.49 1019.97 1020.35 1020.62 1020.77 1020.80 1020.74
1019.85 1019.65 1019.42 1019.17 1018.93 1018.73 1018.58 1018.49 1018.46 1018.48 1018.51 1018.55 1018.55 1018.49 1018.37 1018.16 1017.87 1017.51 1017.11 1016.69 1016.28 1015.90 1015.57 1015.31 1015.12 1014.99 1014.94 1014.97 1015.06 1015.23 1015.48 1015.81 1016.21 1016.70 1017.24 1017.81 1018.39 1018.95 1019.44 1019.84 1020.13 1020.30 1020.36 1020.33
1019.04 1018.86 1018.66 1018.47 1018.30 1018.17 1018.09 1018.06 1018.09 1018.14 1018.22 1018.28 1018.30 1018.27 1018.17 1017.99 1017.73 1017.41 1017.06 1016.67 1016.30 1015.94 1015.63 1015.36 1015.15 1014.99 1014.89 1014.86 1014.89 1014.99 1015.16 1015.42 1015.77 1016.20 1016.69 1017.23 1017.79 1018.33 1018.82 1019.24 1019.55 1019.74 1019.84 1019.84
1018.32 1018.18 1018.05 1017.94 1017.87 1017.83 1017.84 1017.89 1017.97 1018.07 1018.18 1018.26 1018.30 1018.28 1018.19 1018.02 1017.78 1017.49 1017.16 1016.81 1016.45 1016.11 1015.80 1015.52 1015.29 1015.09 1014.94 1014.85 1014.81 1014.83 1014.93 1015.11 1015.38 1015.73 1016.17 1016.66 1017.17 1017.69 1018.17 1018.58 1018.91 1019.14 1019.27 1019.33
1017.78 1017.71 1017.67 1017.66 1017.69 1017.76 1017.86 1017.99 1018.13 1018.27 1018.40 1018.49 1018.53 1018.50 1018.41 1018.24 1018.01 1017.72 1017.40 1017.06 1016.71 1016.37 1016.06 1015.76 1015.50 1015.26 1015.06 1014.90 1014.79 1014.74 1014.76 1014.85 1015.04 1015.32 1015.68 1016.10 1016.57 1017.05 1017.51 1017.93 1018.27 1018.54 1018.73 1018.85
1017.47 1017.49 1017.55 1017.65 1017.78 1017.95 1018.13 1018.33 1018.52 1018.69 1018.82 1018.91 1018.93 1018.89 1018.77 1018.59 1018.34 1018.05 1017.73 1017.39 1017.04 1016.70 1016.37 1016.05 1015.75 1015.48 1015.23 1015.01 1014.83 1014.70 1014.64 1014.66 1014.77 1014.97 1015.25 1015.61 1016.02 1016.46 1016.91 1017.32 1017.69 1018.00 1018.24 1018.43
1017.39 1017.50 1017.65 1017.85 1018.08 1018.33 1018.58 1018.82 1019.04 1019.22 1019.35 1019.41 1019.41 1019.34 1019.20 1018.99 1018.73 1018.43 1018.10 1017.76 1017.40 1017.05 1016.71 1016.37 1016.05 1015.73 1015.44 1015.16 1014.92 1014.73 1014.60 1014.55 1014.57 1014.70 1014.91 1015.21 1015.57 1015.97 1016.39 1016.81 1017.20 1017.55 1017.85 1018.09
1017.51 1017.69 1017.93 1018.20 1018.50 1018.80 1019.09 1019.36 1019.58 1019.75 1019.86 1019.90 1019.87 1019.77 1019.61 1019.39 1019.12 1018.82 1018.49 1018.15 1017.79 1017.44 1017.08 1016.73 1016.38 1016.04 1015.70 1015.38 1015.09 1014.84 1014.65 1014.52 1014.48 1014.53 1014.68 1014.91 1015.22 1015.59 1015.99 1016.41 1016.81 1017.20 1017.55 1017.86
1017.76 1018.01 1018.31 1018.64 1018.97 1019.30 1019.60 1019.85 1020.06 1020.20 1020.28 1020.30 1020.24 1020.13 1019.95 1019.73 1019.47 1019.18 1018.87 1018.54 1018.20 1017.85 1017.50 1017.14 1016.77 1016.40 1016.04 1015.68 1015.34 1015.03 1014.78 1014.60 1014.49 1014.48 1014.56 1014.73 1014.99 1015.32 1015.70 1016.11 1016.53 1016.95 1017.34 1017.70
1018.13 1018.42 1018.75 1019.10 1019.44 1019.76 1020.03 1020.26 1020.43 1020.54 1020.59 1020.58 1020.51 1020.39 1020.23 1020.03 1019.80 1019.54 1019.26 1018.96 1018.64 1018.31 1017.96 1017.60 1017.22 1016.83 1016.43 1016.04 1015.65 1015.30 1015.00 1014.75 1014.59 1014.51 1014.53 1014.64 1014.85 1015.14 1015.49 1015.90 1016.33 1016.77 1017.20 1017.60
1018.58 1018.90 1019.24 1019.58 1019.90 1020.18 1020.42 1020.60 1020.73 1020.80 1020.82 1020.79 1020.72 1020.61 1020.48 1020.31 1020.12 1019.91 1019.67 1019.41 1019.12 1018.81 1018.47 1018.10 1017.70 1017.29 1016.86 1016.43 1016.01 1015.61 1015.25 1014.95 1014.73 1014.59 1014.55 1014.61 1014.77 1015.02 1015.34 1015.73 1016.16 1016.61 1017.07 1017.53
1019.13 1019.45 1019.78 1020.10 1020.38 1020.61 1020.80 1020.93 1021.01 1021.04 1021.04 1021.00 1020.94 1020.86 1020.76 1020.63 1020.49 1020.32 1020.12 1019.89 1019.63 1019.32 1018.98 1018.60 1018.18 1017.74 1017.27 1016.80 1016.33 1015.89 1015.49 1015.14 1014.87 1014.68 1014.58 1014.59 1014.70 1014.91 1015.20 1015.57 1016.00 1016.46 1016.94 1017.43
1019.77 1020.10 1020.41 1020.69 1020.92 1021.10 1021.23 1021.32 1021.35 1021.36 1021.34 1021.30 1021.25 1021.19 1021.11 1021.03 1020.92 1020.78 1020.60 1020.39 1020.13 1019.81 1019.45 1019.04 1018.59 1018.11 1017.60 1017.09 1016.59 1016.10 1015.66 1015.27 1014.95 1014.72 1014.58 1014.55 1014.61 1014.78 1015.05 1015.39 1015.81 1016.27 1016.77 1017.29
1020.50 1020.82 1021.11 1021.36 1021.55 1021.69 1021.77 1021.81 1021.81 1021.79 1021.76 1021.71 1021.67 1021.62 1021.56 1021.49 1021.39 1021.26 1021.08 1020.85 1020.57 1020.22 1019.82 1019.37 1018.88 1018.35 1017.81 1017.26 1016.72 1016.21 1015.73 1015.32 1014.97 1014.71 1014.53 1014.47 1014.50 1014.63 1014.86 1015.19 1015.59 1016.05 1016.56 1017.10
1021.28 1021.60 1021.88 1022.10 1022.26 1022.36 1022.40 1022.41 1022.38 1022.34 1022.28 1022.23 1022.18 1022.12 1022.06 1021.98 1021.86 1021.71 1021.50 1021.23 1020.90 1020.50 1020.05 1019.55 1019.01 1018.44 1017.87 1017.29 1016.73 1016.20 1015.72 1015.29 1014.93 1014.65 1014.46 1014.37 1014.37 1014.48 1014.68 1014.97 1015.35 1015.81 1016.32 1016.87
1022.06 1022.38 1022.64 1022.84 1022.97 1023.05 1023.06 1023.04 1022.99 1022.92 1022.85 1022.78 1022.70 1022.62 1022.53 1022.41 1022.25 1022.05 1021.78 1021.46 1021.07 1020.61 1020.11 1019.56 1018.99 1018.39 1017.80 1017.22 1016.66 1016.14 1015.66 1015.25 1014.89 1014.61 1014.41 1014.30 1014.28 1014.35 1014.52 1014.78 1015.13 1015.56 1016.06 1016.60
1022.77 1023.08 1023.33 1023.51 1023.62 1023.66 1023.66 1023.61 1023.53 1023.44 1023.34 1023.24 1023.13 1023.01 1022.87 1022.70 1022.48 1022.21 1021.89 1021.50 1021.05 1020.56 1020.01 1019.44 1018.85 1018.25 1017.67 1017.11 1016.57 1016.08 1015.64 1015.24 1014.91 1014.63 1014.43 1014.30 1014.25 1014.29 1014.42 1014.64 1014.95 1015.34 1015.81 1016.34
1023.33 1023.63 1023.85 1024.01 1024.09 1024.11 1024.08 1024.01 1023.90 1023.78 1023.65 1023.51 1023.36 1023.19 1023.00 1022.77 1022.49 1022.17 1021.79 1021.36 1020.88 1020.35 1019.80 1019.23 1018.65 1018.09 1017.54 1017.03 1016.55 1016.11 1015.71 1015.35 1015.04 1014.78 1014.57 1014.42 1014.34 1014.33 1014.41 1014.57 1014.83 1015.17 1015.60 1016.10
1023.72 1023.98 1024.17 1024.29 1024.33 1024.32 1024.26 1024.15 1024.02 1023.87 1023.70 1023.52 1023.33 1023.11 1022.87 1022.60 1022.28 1021.92 1021.51 1021.06 1020.57 1020.06 1019.53 1019.00 1018.47 1017.97 1017.49 1017.04 1016.63 1016.25 1015.90 1015.58 1015.30 1015.04 1014.82 1014.65 1014.52 1014.46 1014.48 1014.57 1014.76 1015.04 1015.42 1015.88
Thickness
5673 5683 5685 5685 5688 5688 5682 5677 5669 5677 5683 5696 5705 5709 5713 5714 5712 5711 5711 5711 5710 5707 5706 5706 5705 5703 5702 5700 5700 5699 5696 5694 5694 5693 5693 5692 5692 5691 5690 5690 5690 5689 5688 5688
5665 5677 5680 5680 5686 5688 5687 5686 5683 5685 5688 5705 5711 5710 5709 5709 5710 5708 5708 5710 5711 5709 5707 5705 5705 5703 5701 5700 5699 5698 5696 5694 5694 5692 5691 5690 5689 5688 5687 5686 5686 5686 5685 5684
5646 5662 5666 5663 5683 5686 5687 5691 5690 5683 5692 5704 5703 5705 5708 5709 5710 5710 5709 5710 5711 5710 5709 5708 5706 5705 5702 5701 5699 5697 5695 5694 5693 5691 5689 5688 5687 5685 5684 5683 5683 5682 5681 5680
5636 5645 5638 5669 5694 5695 5690 5692 5695 5696 5700 5704 5706 5710 5713 5714 5712 5710 5711 5711 5712 5711 5710 5709 5708 5706 5704 5700 5698 5696 5694 5692 5691 5689 5687 5686 5684 5682 5681 5680 5679 5678 5677 5677
5627 5630 5643 5669 5687 5690 5684 5683 5696 5695 5699 5703 5707 5706 5705 5712 5714 5713 5714 5714 5714 5714 5712 5710 5707 5706 5702 5698 5696 5694 5692 5690 5690 5688 5685 5683 5681 5679 5678 5677 5676 5675 5675 5674
5622 5624 5630 5663 5689 5696 5685 5673 5694 5697 5697 5698 5698 5685 5692 5708 5712 5713 5715 5715 5713 5713 5711 5708 5707 5706 5701 5697 5694 5692 5692 5691 5690 5688 5685 5682 5680 5678 5677 5675 5673 5672 5671 5670
5618 5620 5637 5670 5686 5686 5661 5671 5694 5697 5697 5697 5694 5696 5703 5709 5710 5712 5712 5713 5712 5710 5708 5708 5707 5704 5699 5696 5694 5694 5693 5691 5688 5687 5685 5682 5679 5677 5674 5672 5670 5668 5666 5666
5616 5615 5633 5675 5677 5671 5675 5688 5692 5693 5696 5697 5700 5703 5705 5706 5706 5707 5707 5708 5708 5706 5705 5705 5705 5702 5697 5694 5695 5693 5691 5688 5685 5684 5683 5680 5676 5673 5671 5668 5665 5663 5661 5660
5629 5637 5659 5672 5676 5681 5684 5683 5687 5690 5695 5696 5696 5698 5700 5701 5702 5703 5704 5704 5704 5703 5701 5701 5702 5701 5696 5695 5694 5691 5687 5684 5682 5680 5679 5677 5674 5670 5667 5665 5662 5659 5658 5656
5630 5644 5656 5665 5671 5676 5679 5680 5685 5689 5692 5693 5693 5695 5696 5697 5697 5698 5699 5699 5700 5698 5696 5696 5697 5697 5697 5695 5692 5688 5684 5681 5678 5676 5674 5672 5671 5668 5665 5662 5660 5658 5655 5653
5628 5640 5648 5657 5663 5669 5673 5677 5680 5684 5688 5690 5691 5692 5693 5693 5693 5694 5695 5695 5695 5695 5693 5693 5693 5693 5693 5692 5690 5685 5681 5678 5675 5673 5670 5668 5666 5665 5663 5662 5661 5658 5655 5653
5625 5638 5639 5648 5659 5664 5666 5669 5673 5677 5681 5686 5688 5688 5689 5689 5690 5690 5690 5690 5690 5690 5689 5689 5689 5689 5689 5689 5687 5683 5678 5674 5672 5669 5666 5664 5661 5658 5657 5657 5657 5657 5655 5653
5633 5640 5642 5649 5655 5659 5661 5665 5669 5673 5676 5679 5683 5685 5686 5685 5685 5686 5686 5685 5685 5685 5686 5686 5685 5684 5684 5684 5682 5679 5675 5672 5669 5666 5663 5660 5658 5655 5651 5649 5649 5649 5649 5648
5632 5634 5636 5642 5647 5653 5657 5661 5664 5667 5671 5674 5676 5679 5680 5680 5680 5680 5681 5682 5682 5682 5681 5681 5680 5679 5680 5679 5677 5674 5671 5669 5665 5662 5659 5657 5654 5651 5649 5645 5642 5640 5640 5640
5626 5630 5633 5638 5643 5647 5651 5654 5655 5658 5662 5666 5670 5672 5673 5674 5674 5675 5676 5677 5677 5676 5676 5676 5675 5675 5676 5675 5672 5669 5666 5663 5660 5657 5654 5652 5649 5646 5644 5641 5638 5634 5632 5631
5620 5624 5627 5631 5635 5639 5643 5646 5648 5651 5656 5660 5661 5665 5668 5670 5670 5670 5671 5672 5670 5669 5670 5671 5671 5671 5671 5669 5666 5663 5661 5659 5656 5652 5649 5646 5643 5640 5637 5634 5631 5629 5626 5625
5611 5614 5618 5622 5628 5632 5636 5640 5643 5646 5651 5654 5656 5659 5661 5661 5661 5662 5663 5665 5666 5666 5666 5666 5665 5666 5665 5664 5661 5658 5655 5652 5650 5646 5643 5641 5638 5635 5632 5629 5626 5624 5622 5620
5611 5614 5617 5620 5623 5626 5630 5634 5637 5641 5645 5649 5650 5652 5653 5654 5654 5655 5657 5658 5658 5657 5658 5659 5660 5660 5659 5657 5655 5652 5649 5646 5643 5640 5637 5635 5632 5629 5626 5624 5621 5618 5615 5613
5605 5609 5612 5615 5619 5621 5624 5627 5630 5634 5638 5642 5643 5644 5647 5649 5649 5650 5650 5650 5650 5649 5650 5653 5654 5653 5651 5650 5649 5646 5643 5639 5636 5633 5631 5628 5625 5622 5620 5617 5615 5612 5609 5606
5599 5603 5606 5608 5612 5615 5618 5621 5623 5627 5631 5634 5636 5637 5638 5640 5642 5643 5643 5643 5643 5645 5646 5647 5647 5645 5644 5643 5642 5639 5637 5633 5630 5626 5624 5621 5619 5616 5613 5611 5609 5606 5603 5601
5593 5595 5598 5601 5604 5608 5611 5614 5617 5620 5623 5626 5628 5629 5630 5632 5634 5635 5635 5634 5636 5638 5639 5640 5639 5638 5637 5637 5635 5632 5630 5626 5623 5620 5617 5615 5612 5609 5607 5604 5602 5600 5598 5595
5584 5587 5590 5593 5596 5598 5602 5606 5610 5613 5615 5618 5620 5621 5622 5622 5624 5626 5627 5628 5629 5631 5631 5631 5631 5631 5631 5629 5627 5624 5622 5619 5616 5613 5610 5608 5605 5602 5600 5597 5595 5593 5590 5588
5574 5578 5581 5585 5588 5590 5594 5597 5601 5604 5607 5609 5611 5612 5614 5615 5616 5617 5616 5619 5621 5623 5623 5623 5623 5623 5623 5621 5618 5616 5613 5610 5608 5605 5603 5600 5598 5595 5592 5590 5587 5584 5582 5579
5566 5569 5573 5576 5580 5582 5583 5587 5591 5595 5598 5600 5602 5604 5605 5606 5606 5609 5611 5612 5614 5614 5613 5613 5614 5613 5612 5610 5608 5606 5604 5601 5599 5596 5594 5591 5589 5586 5584 5581 5578 5575 5572 5570
5558 5561 5564 5567 5569 5572 5575 5578 5581 5584 5587 5589 5591 5594 5595 5598 5598 5600 5601 5603 5604 5604 5602 5603 5604 5603 5601 5599 5597 5596 5594 5592 5590 5587 5585 5582 5579 5576 5574 5572 5569 5566 5563 5560
5549 5553 5555 5558 5561 5564 5566 5569 5572 5574 5577 5578 5580 5582 5584 5586 5588 5590 5591 5592 5593 5593 5592 5592 5591 5591 5590 5588 5587 5585 5583 5581 5579 5578 5575 5572 5569 5567 5564 5562 5559 5556 5554 5551
5542 5544 5547 5549 5553 5556 5559 5562 5564 5566 5568 5570 5571 5572 5574 5576 5577 5578 5580 5581 5581 5581 5581 5580 5580 5579 5579 5578 5576 5574 5573 5571 5569 5567 5565 5562 5560 5558 5555 5552 5549 5546 5544 5541